[[{"header":{"parameterUnit":"m.s-1","parameterCategory":1,"la1":30.2991,"la2":30.254,"lo1":-89.0895,"lo2":-89.0444,"dy":0.0017,"dx":0.0017,"nx":28,"ny":28,"refTime":"2025-03-29T21:00:00:Z","depth":0,"parameterNumber":2,"parameterNumberName":"U-component_of_WINDS"},"data":[0,0,0,0,0,0,0,0,0,0,0,0,0,0,0,0,0,0,0,0,0,0,0,0,0,0,0,0,0,0,0,0,0,0,0,0,0,0,0,0,0,0,0,0,0,0,0,0,0,0,0,0,0,0,0,0,0,0,-3.8029,-3.803,0,-3.8156,-3.8158,-3.8159,-3.8193,-3.8192,-3.8191,-3.8191,-3.832,-3.8324,-3.8328,0,0,0,0,0,0,0,0,0,0,0,0,0,-3.7813,-3.7817,-3.8029,-3.803,-3.8032,-3.8156,-3.8158,-3.816,-3.8193,-3.8192,-3.8191,-3.819,-3.8318,-3.8323,-3.8328,0,0,0,0,0,0,0,0,0,0,0,0,0,-3.792,-3.7818,-3.8028,-3.8064,-3.8068,-3.8156,-3.8158,-3.816,-3.8193,-3.8192,-3.8191,-3.819,-3.8317,-3.8323,-3.8329,-3.839,0,0,-3.8348,-3.835,0,0,0,0,0,0,0,0,-3.7914,-3.7928,-3.8057,-3.8061,-3.8066,-3.8158,-3.8129,-3.8237,-3.8193,-3.8146,-3.8191,-3.8189,-3.8266,-3.8277,-3.8303,-3.8396,-3.8402,-3.8348,-3.8352,-3.8355,-3.8356,0,0,0,0,0,0,0,-3.7907,-3.7923,-3.8079,-3.8059,-3.8065,-3.8073,-3.8087,-3.815,-3.8211,-3.815,-3.8152,-3.8167,-3.8269,-3.8297,-3.8306,-3.8404,-3.8348,-3.8354,-3.8357,-3.836,-3.8553,-3.8554,0,0,0,0,0,0,-3.7893,-3.7916,-3.8075,-3.8083,-3.7986,-3.8077,-3.8093,-3.8129,-3.821,-3.8222,-3.8168,-3.8168,-3.8287,-3.8299,-3.8311,-3.8388,-3.8355,-3.8361,-3.8364,-3.8552,-3.8553,-3.8555,0,0,0,0,0,0,-3.7889,-3.7907,-3.807,-3.8001,-3.8022,-3.8082,-3.8123,-3.8133,-3.8161,-3.8224,-3.8235,-3.8186,-3.8287,-3.8302,-3.837,-3.8392,-3.8363,-3.8369,-3.855,-3.8552,-3.8554,-3.8541,0,0,0,0,0,0,-3.7882,-3.7905,-3.7929,-3.8001,-3.8025,-3.8127,-3.8124,-3.8136,-3.8172,-3.8173,-3.8244,-3.8254,-3.8287,-3.8361,-3.8376,-3.84,-3.8374,-3.8548,-3.8551,-3.8554,-3.854,-3.8542,-3.8545,0,0,0,0,0,-3.7874,-3.792,-3.793,-3.7949,-3.8057,-3.8128,-3.8142,-3.818,-3.8173,-3.8198,-3.8239,-3.8252,-3.8388,-3.8367,-3.8385,-3.8412,-3.8547,-3.855,-3.8553,-3.8539,-3.8542,-3.8545,0,0,0,0,0,0,-3.7849,-3.793,-3.7942,-3.8013,-3.8063,-3.8134,-3.8166,-3.8182,-3.8235,-3.8234,-3.8278,-3.8294,-3.8358,-3.8392,-3.8368,-3.8475,-3.8468,-3.8474,-3.845,-3.8454,-3.8456,-3.8446,-3.8379,0,0,0,0,0,-3.7852,-3.7903,-3.7972,-3.8027,-3.8052,-3.8104,-3.8137,-3.8162,-3.8216,-3.8237,-3.8283,-3.8334,-3.8389,-3.8424,-3.8477,-3.8546,-3.8561,-3.8573,-3.8575,-3.8577,-3.8582,-3.862,-3.8625,-3.8565,-3.8565,-3.8565,0,0,-3.7857,-3.7908,-3.7938,-3.8023,-3.8065,-3.8117,-3.8122,-3.8177,-3.8216,-3.8245,-3.8312,-3.8348,-3.8408,-3.8476,-3.8509,-3.8506,-3.8602,-3.8581,-3.8582,-3.8586,-3.8624,-3.8629,-3.8634,-3.8567,-3.8567,-3.8567,0,0,-3.7894,-3.7938,-3.7989,-3.8031,-3.8095,-3.813,-3.8143,-3.8211,-3.8236,-3.8304,-3.8327,-3.8374,-3.8467,-3.8509,-3.8543,-3.8597,-3.8611,-3.8613,-3.8625,-3.8662,-3.8667,-3.8671,-3.8689,-3.8695,-3.8618,-3.8618,-3.8618,0,-3.7892,-3.7972,-3.8013,-3.8067,-3.8103,-3.8133,-3.8185,-3.8224,-3.8302,-3.8326,-3.8323,-3.8441,-3.8484,-3.8562,-3.8575,-3.8602,-3.8617,-3.8604,-3.8663,-3.8668,-3.8672,-3.869,-3.8697,-3.8618,-3.8618,-3.8618,-3.8618,0,-3.7967,-3.8022,-3.8055,-3.813,-3.8171,-3.8223,-3.8271,-3.8308,-3.8329,-3.8364,-3.8433,-3.8486,-3.8551,-3.8572,-3.8593,-3.8653,-3.865,-3.8654,-3.8647,-3.8677,-3.8694,-3.8702,-3.8618,-3.8618,-3.8618,-3.8618,0,0,-3.7989,-3.8087,-3.8098,-3.8132,-3.8206,-3.8249,-3.8303,-3.8367,-3.8397,-3.8451,-3.8496,-3.8575,-3.858,-3.8618,-3.8645,-3.8677,-3.8715,-3.8678,-3.868,-3.8682,-3.8784,-3.8778,-3.8785,-3.8726,-3.8727,-3.8729,-3.8778,0,-3.8033,-3.8131,-3.8169,-3.8248,-3.8299,-3.8329,-3.8376,-3.8426,-3.8461,-3.8509,-3.8548,-3.8602,-3.8605,-3.8628,-3.8662,-3.8703,-3.8736,-3.8701,-3.8768,-3.8769,-3.8749,-3.8795,-3.8789,-3.8833,-3.8785,-3.8786,-3.8787,0,-3.8098,-3.8152,-3.8236,-3.8304,-3.8327,-3.8368,-3.843,-3.8476,-3.8533,-3.8556,-3.86,-3.8625,-3.8682,-3.8673,-3.8752,-3.8727,-3.8757,-3.8782,-3.8785,-3.8791,-3.8779,-3.88,-3.8848,-3.8854,-3.8799,-3.8798,-3.8797,0,-3.8104,-3.8198,-3.826,-3.8289,-3.837,-3.8398,-3.8433,-3.849,-3.8526,-3.858,-3.8604,-3.8664,-3.8696,-3.8742,-3.8783,-3.8773,-3.8858,-3.8853,-3.8878,-3.8877,-3.8893,-3.8891,-3.8944,-3.8915,-3.8915,-3.8915,-3.8915,0,-3.8148,-3.8198,-3.8264,-3.8302,-3.8359,-3.8403,-3.8458,-3.8495,-3.8546,-3.8591,-3.8622,-3.8664,-3.8716,-3.8764,-3.8797,-3.8857,-3.8872,-3.8891,-3.8899,-3.8887,-3.8885,-3.8906,-3.8903,-3.8917,-3.8916,-3.8916,-3.8916,0,-3.8163,-3.821,-3.828,-3.8351,-3.837,-3.8408,-3.8469,-3.8507,-3.8544,-3.8601,-3.8617,-3.8675,-3.8734,-3.878,-3.8856,-3.8878,-3.8941,-3.8951,-3.8922,-3.8925,-3.8947,-3.8944,-3.9015,-3.9026,-3.8991,-3.8991,-3.8991,0,-3.8188,-3.8227,-3.8302,-3.8335,-3.837,-3.8423,-3.846,-3.8506,-3.8543,-3.8612,-3.8642,-3.8703,-3.8754,-3.8847,-3.8896,-3.8955,-3.8964,-3.8985,-3.8973,-3.8961,-3.8963,-3.8959,-3.8963,-3.8986,-3.8986,-3.8986,-3.8986,0,-3.8226,-3.8247,-3.83,-3.836,-3.8404,-3.8454,-3.8504,-3.853,-3.8584,-3.8625,-3.8686,-3.8726,-3.8805,-3.8865,-3.8929,-3.8965,-3.8984,-3.899,-3.8999,-3.8987,-3.8968,-3.8977,-3.8924,-3.8988,-3.8988,-3.8988,-3.8987,-3.8987,-3.8246,-3.8282,-3.834,-3.8398,-3.8441,-3.8488,-3.8527,-3.8569,-3.8621,-3.8688,-3.8712,-3.8775,-3.8832,-3.892,-3.8957,-3.9006,-3.9007,-3.902,-3.9023,-3.9025,-3.9023,-3.8962,-3.9018,-3.9018,-3.9018,-3.9018,-3.9018,0,-3.8284,-3.8324,-3.8376,-3.8446,-3.8491,-3.8507,-3.8564,-3.8601,-3.8655,-3.8707,-3.8758,-3.8828,-3.8887,-3.894,-3.9001,-3.9031,-3.9041,-3.9045,-3.9042,-3.905,-3.9019,-3.9005,-3.9035,-3.9035,-3.9035,-3.9035,-3.9035,-3.9035,-3.8309,-3.8371,-3.8399,-3.8482,-3.8522,-3.8583,-3.8614,-3.8657,-3.8699,-3.8776,-3.8825,-3.886,-3.8913,-3.8978,-3.9033,-3.9047,-3.9067,-3.9069,-3.9085,-3.9055,-3.9052,-3.905,-3.9037,-3.9073,-3.9073,-3.9112,-3.9112,-3.9112]},{"header":{"parameterUnit":"m.s-1","parameterCategory":1,"la1":30.2991,"la2":30.254,"lo1":-89.0895,"lo2":-89.0444,"dy":0.0017,"dx":0.0017,"nx":28,"ny":28,"refTime":"2025-03-29T21:00:00:Z","depth":0,"parameterNumber":3,"parameterNumberName":"V-component_of_WINDS"},"data":[0,0,0,0,0,0,0,0,0,0,0,0,0,0,0,0,0,0,0,0,0,0,0,0,0,0,0,0,0,0,0,0,0,0,0,0,0,0,0,0,0,0,0,0,0,0,0,0,0,0,0,0,0,0,0,0,0,0,4.8086,4.8087,0,4.8147,4.8148,4.8148,4.8112,4.811,4.8109,4.8107,4.8166,4.8169,4.8172,0,0,0,0,0,0,0,0,0,0,0,0,0,4.7937,4.794,4.8086,4.8087,4.8088,4.8147,4.8148,4.8148,4.8112,4.811,4.8108,4.8106,4.8165,4.8169,4.8172,0,0,0,0,0,0,0,0,0,0,0,0,0,4.8,4.7941,4.8086,4.8077,4.8077,4.8147,4.8148,4.8149,4.8113,4.811,4.8108,4.8105,4.8164,4.8168,4.8173,4.8254,0,0,4.8187,4.8189,0,0,0,0,0,0,0,0,4.7997,4.8006,4.8077,4.8078,4.8077,4.8119,4.8117,4.8184,4.8114,4.8099,4.8107,4.8104,4.8152,4.8158,4.8175,4.8257,4.8259,4.8188,4.8191,4.8193,4.8194,0,0,0,0,0,0,0,4.7992,4.8003,4.811,4.8078,4.8079,4.8069,4.8075,4.8129,4.8139,4.81,4.8098,4.8106,4.8152,4.817,4.8176,4.826,4.8188,4.8192,4.8195,4.8197,4.8415,4.8418,0,0,0,0,0,0,4.7989,4.7999,4.8108,4.8112,4.803,4.8074,4.8081,4.8108,4.8139,4.8141,4.8108,4.8104,4.8163,4.817,4.8178,4.8277,4.8193,4.8197,4.82,4.8412,4.8415,4.8419,0,0,0,0,0,0,4.7986,4.7999,4.8106,4.8055,4.8068,4.8079,4.8111,4.8111,4.813,4.8144,4.8146,4.8125,4.8162,4.8171,4.8236,4.8278,4.8199,4.8204,4.8408,4.8413,4.8417,4.8475,0,0,0,0,0,0,4.7982,4.7998,4.8029,4.8056,4.8071,4.8164,4.8113,4.8114,4.8138,4.8134,4.8161,4.8163,4.816,4.8229,4.8241,4.8283,4.8207,4.8405,4.841,4.8416,4.8469,4.848,4.849,0,0,0,0,0,4.7977,4.8042,4.8031,4.8044,4.811,4.8166,4.8174,4.8171,4.8142,4.8173,4.8183,4.8162,4.8272,4.8236,4.8249,4.8294,4.8402,4.8409,4.8415,4.8464,4.8478,4.849,0,0,0,0,0,0,4.8017,4.8045,4.8033,4.8109,4.8136,4.816,4.8199,4.8186,4.822,4.8214,4.8207,4.8214,4.8283,4.8294,4.8254,4.8375,4.8332,4.8342,4.8365,4.8379,4.8389,4.8385,4.8211,0,0,0,0,0,4.8036,4.808,4.8101,4.8165,4.818,4.8188,4.8212,4.8207,4.8234,4.8245,4.8259,4.8285,4.8326,4.8353,4.839,4.847,4.8477,4.8507,4.8518,4.8527,4.8535,4.8581,4.8595,4.844,4.844,4.844,0,0,4.8073,4.8093,4.8121,4.8174,4.8194,4.824,4.8197,4.8246,4.8281,4.8252,4.8315,4.8327,4.8356,4.843,4.8463,4.8441,4.858,4.8535,4.8542,4.8546,4.8589,4.8604,4.8617,4.8445,4.8444,4.8443,0,0,4.8164,4.8184,4.8241,4.8263,4.8295,4.8301,4.8314,4.8342,4.8349,4.8413,4.8393,4.8433,4.8502,4.8525,4.8545,4.8648,4.8631,4.8661,4.8716,4.8761,4.8773,4.8784,4.8823,4.8836,4.8669,4.8669,4.8669,0,4.8206,4.8275,4.8272,4.8325,4.8349,4.8328,4.8386,4.8407,4.8449,4.8467,4.8443,4.8532,4.8549,4.8629,4.8655,4.8671,4.8687,4.8658,4.8772,4.8782,4.8793,4.8829,4.8844,4.8673,4.8672,4.8672,4.8672,0,4.8327,4.8375,4.8417,4.8462,4.8491,4.8546,4.8551,4.8581,4.8574,4.8582,4.8649,4.8669,4.8713,4.8731,4.8724,4.8811,4.8797,4.8772,4.8729,4.8811,4.8846,4.886,4.8678,4.8676,4.8675,4.8675,0,0,4.8444,4.8488,4.8504,4.8525,4.856,4.8597,4.8651,4.8695,4.8722,4.8752,4.8799,4.8859,4.8838,4.8861,4.8857,4.8896,4.8979,4.8867,4.8867,4.8888,4.9078,4.9097,4.9114,4.8968,4.897,4.8972,4.9076,0,4.854,4.8637,4.8637,4.8726,4.8772,4.8753,4.8801,4.8828,4.8837,4.8877,4.8886,4.893,4.8898,4.8912,4.895,4.8961,4.9017,4.8953,4.9011,4.9013,4.9006,4.9132,4.9151,4.9249,4.909,4.9092,4.9094,0,4.8664,4.8701,4.8796,4.8827,4.8846,4.8889,4.8931,4.8969,4.8999,4.9003,4.9031,4.9021,4.9077,4.9032,4.911,4.9067,4.909,4.9099,4.9103,4.9109,4.9059,4.9142,4.9279,4.9295,4.9114,4.9113,4.9111,0,4.8743,4.8816,4.8884,4.8902,4.8939,4.897,4.8987,4.9015,4.9042,4.9078,4.9096,4.9137,4.916,4.9193,4.9195,4.9161,4.9274,4.9228,4.9279,4.9279,4.9304,4.9303,4.9448,4.9317,4.9317,4.9317,4.9316,0,4.885,4.891,4.892,4.8961,4.9028,4.9027,4.9092,4.9106,4.9132,4.9175,4.9161,4.9202,4.9201,4.9243,4.9245,4.931,4.932,4.9325,4.9325,4.9327,4.9327,4.9343,4.9337,4.932,4.932,4.9319,4.9318,0,4.895,4.8959,4.9032,4.9062,4.9071,4.9119,4.9145,4.9184,4.9193,4.9249,4.9262,4.9275,4.9324,4.9329,4.9385,4.9386,4.9466,4.9458,4.9457,4.9456,4.9507,4.9503,4.9669,4.9692,4.9545,4.9546,4.9547,0,4.9019,4.9064,4.9101,4.913,4.9149,4.9196,4.9225,4.9226,4.9257,4.9296,4.9331,4.9379,4.9418,4.9497,4.9511,4.9555,4.9549,4.9604,4.9555,4.9557,4.9552,4.955,4.9555,4.9614,4.9615,4.9617,4.9618,0,4.914,4.9143,4.9186,4.9232,4.9267,4.9302,4.9335,4.936,4.9365,4.94,4.9451,4.9482,4.9541,4.9589,4.9632,4.9649,4.9635,4.9633,4.9648,4.9651,4.965,4.9653,4.9484,4.9629,4.9628,4.9627,4.9627,4.9626,4.9228,4.9269,4.9302,4.935,4.9376,4.9408,4.9448,4.9463,4.9506,4.9555,4.9553,4.961,4.9641,4.9698,4.9718,4.9762,4.9744,4.9764,4.977,4.9775,4.9782,4.9642,4.977,4.977,4.9769,4.9769,4.9769,0,4.935,4.9371,4.9416,4.9465,4.9504,4.9489,4.9525,4.9558,4.9609,4.964,4.9679,4.9739,4.9786,4.9805,4.9852,4.9884,4.9879,4.9896,4.9894,4.9899,4.9794,4.9778,4.99,4.99,4.99,4.99,4.9899,4.9899,4.9419,4.9488,4.9496,4.9578,4.9598,4.9655,4.9678,4.9707,4.9732,4.98,4.9841,4.9853,4.988,4.9928,4.9972,4.9976,4.9994,5.0015,5.0017,4.9919,4.9906,4.9893,4.9878,5.0019,5.0019,5.0118,5.0119,5.012]}]]